Flag for United Kingdom Weather past 2 weeks in Darlington, England, United Kingdom

Now
41 °F

Passing clouds.


Feels Like: 35 °F
Forecast: 31 / 41 °F
Wind: 10 mph from Northwest

Location: Leeming

Current Time: Dec 25, 2014 at 6:00:19 AM

Latest Report: Dec 25, 2014 at 4:50 AM


Visibility: N/A

Pressure: 30.15 "Hg

Humidity: 76%

Dew point: 34 °F

Location of DarlingtonLocation

Historic Weather in Darlington — Graph

°F

Darlington temperature yesterday

Maximum temperature yesterday: 46 °F (at 12:50 AM)
Minimum temperature yesterday: 39 °F (at 7:50 AM)
Average temperature yesterday: 43 °F

Past Weeks' High & Low Weather Summary

 TemperatureHumidityPressure
High57 °F (Dec 18, 11:50 AM)100% (Dec 16, 11:50 PM)30.27 "Hg (Dec 16, 11:50 PM)
Low30 °F (Dec 13, 7:50 AM)57% (Dec 11, 2:50 PM)29.15 "Hg (Dec 12, 6:55 AM)
Average45 °F80%29.72 "Hg
* Reported Dec 10 3:50 AM — Dec 25 3:50 AM, Darlington, Weather by CustomWeather, © 2014

Note: Actual official high and low records may vary slightly from our data, if they occured in-between our weather recording intervals... More about our weather records

Advertising

Darlington weather history for previous 24 hours

 ConditionsComfort  
Time TempWeatherWind HumidityBarometerVisibility
3:50 AM
Dec 25
41 °FPassing clouds.9 mph87%30.15 "HgN/A
2:50 AM43 °FPassing clouds.14 mph76%30.12 "HgN/A
1:50 AM41 °FPassing clouds.6 mph81%30.09 "HgN/A
12:50 AM41 °FPassing clouds.10 mph81%30.07 "HgN/A
11:50 PM
Dec 24
41 °FQuite cool.6 mph81%30.07 "HgN/A
10:50 PM41 °FQuite cool.12 mph81%30.01 "HgN/A
9:50 PM43 °FQuite cool.18 mph76%30.01 "HgN/A
8:50 PM43 °FQuite cool.17 mph76%29.98 "HgN/A
7:50 PM43 °FQuite cool.20 mph76%29.95 "HgN/A
6:50 PM43 °FQuite cool.16 mph76%29.95 "HgN/A
5:50 PM43 °FQuite cool.15 mph76%29.92 "HgN/A
4:50 PM43 °FQuite cool.17 mph71%29.92 "HgN/A
3:50 PM43 °FQuite cool.17 mph76%29.92 "HgN/A
2:50 PM43 °FQuite cool.17 mph71%29.89 "HgN/A
1:50 PM45 °FQuite cool.20 mph61%29.86 "HgN/A
12:50 PM45 °FQuite cool.17 mph71%29.86 "HgN/A
11:50 AM45 °FQuite cool.20 mph66%29.86 "HgN/A
10:50 AM45 °FQuite cool.21 mph66%29.86 "HgN/A
9:50 AM43 °FPartly sunny.5 mph71%29.86 "HgN/A
8:50 AM39 °FPassing clouds.3 mph75%29.86 "HgN/A
7:50 AM39 °FPassing clouds.9 mph81%29.83 "HgN/A
6:50 AM41 °FPassing clouds.8 mph81%29.83 "HgN/A
Weather by CustomWeather, © 2014

See weather overviewHow to use our weather pages